Marshfield, WI

8:58 PM CST on November 14, 2019 (GMT -0600)
Marshfield Municipal

Weather History for KMFI - September, 2019

Change the Weather History Date:

Tuesday, September 10, 2019

  Actual Average Record
Temperature  
Mean Temperature 72 °F -  
Max Temperature 80 °F 73 °F 97 °F (1931)
Min Temperature 63 °F 48 °F 25 °F (1917)
Cooling Degree Days 6    
Growing Degree Days 22 (Base 50)    
Moisture  
Dew Point 65 °F    
Average Humidity 90    
Maximum Humidity 100    
Minimum Humidity 67    
Precipitation  
Precipitation 0.06 in - - ()
Sea Level Pressure  
Sea Level Pressure 29.97 in    
Wind  
Wind Speed 9 mph (SW)    
Max Wind Speed 17 mph    
Max Gust Speed 28 mph    
Visibility 7 miles    
Events Fog , Rain , Thunderstorm    
Averages and records for this station are not official NWS values.
T = Trace of Precipitation, MM = Missing Value Source: NWS Daily Summary

Daily Weather History Graph

Daily Weather History Graph

Search for Another Location

Airport or City:

Astronomy

Sep. 10, 2019 Rise Set
Actual Time 6:33 AM CDT 7:21 PM CDT
Civil Twilight 6:03 AM CDT 7:50 PM CDT
Nautical Twilight 5:28 AM CDT 8:25 PM CDT
Astronomical Twilight 4:52 AM CDT 9:02 PM CDT
Moon 6:07 PM CDT (9/10) 2:48 AM CDT (9/10)
Length of Visible Light 13h 46m
Length of Day
12h 47m
Waxing Gibbous, 89% of the Moon is Illuminated
Sep 10
Waxing Gibbous
Sep 13
Full
Sep 21
Last Quarter
Sep 28
New
Oct 5
First Quarter

Hourly Weather History & Observations

Time (CDT) Temp. Heat Index Dew Point Humidity Pressure Visibility Wind Dir Wind Speed Gust Speed Precip Events Conditions
2:54 AM 64.0 °F - 62.1 °F 93% 29.91 in 10.0 mi South 10.4 mph - N/A   Scattered Clouds
3:52 AM 64.4 °F - 62.6 °F 94% 29.90 in 10.0 mi Variable 4.6 mph - N/A   Mostly Cloudy
3:54 AM 64.0 °F - 62.1 °F 93% 29.90 in 10.0 mi South 4.6 mph - N/A   Mostly Cloudy
3:59 AM 64.9 °F - 63.0 °F 93% 29.91 in 10.0 mi South 5.8 mph - N/A Thunderstorm Mostly Cloudy
4:19 AM 64.9 °F - 63.0 °F 93% 29.90 in 10.0 mi South 10.4 mph 18.4 mph 0.00 in Rain Light Rain
4:34 AM 66.0 °F - 64.0 °F 93% 29.91 in 10.0 mi SSW 15.0 mph - 0.00 in Rain , Thunderstorm Light Rain
4:44 AM 66.0 °F - 64.0 °F 93% 29.91 in 10.0 mi SSW 9.2 mph 19.6 mph 0.00 in Rain , Thunderstorm Light Rain
4:51 AM 66.2 °F - 64.4 °F 94% 29.91 in 6.0 mi SSW 12.7 mph 18.4 mph 0.01 in Rain , Thunderstorm Thunderstorms and Rain
4:54 AM 66.0 °F - 64.0 °F 93% 29.91 in 6.0 mi SSW 11.5 mph - 0.01 in Rain , Thunderstorm Light Thunderstorms and Rain
5:04 AM 66.9 °F - 64.0 °F 90% 29.90 in 5.0 mi SSW 13.8 mph 23.0 mph 0.02 in Rain Light Rain
5:14 AM 68.0 °F - 64.9 °F 90% 29.91 in 4.0 mi SSW 17.3 mph 27.6 mph 0.05 in Rain , Thunderstorm Light Thunderstorms and Rain
5:24 AM 66.9 °F - 64.9 °F 93% 29.91 in 10.0 mi South 15.0 mph - 0.05 in Thunderstorm Thunderstorm
5:35 AM 66.9 °F - 64.9 °F 93% 29.91 in 10.0 mi South 11.5 mph - 0.05 in   Overcast
5:54 AM 66.9 °F - 64.9 °F 93% 29.91 in 10.0 mi South 12.7 mph - 0.05 in   Overcast
6:29 AM 66.0 °F - 64.0 °F 93% 29.91 in 10.0 mi South 11.5 mph - N/A   Overcast
6:43 AM 66.0 °F - 64.0 °F 93% 29.91 in 9.0 mi SSW 9.2 mph - N/A   Overcast
6:54 AM 66.0 °F - 64.0 °F 93% 29.91 in 9.0 mi SSW 9.2 mph - N/A   Mostly Cloudy
7:33 AM 66.9 °F - 64.9 °F 93% 29.93 in 8.0 mi South 10.4 mph - N/A   Overcast
7:41 AM 66.9 °F - 64.9 °F 93% 29.94 in 8.0 mi South 10.4 mph - N/A   Overcast
7:54 AM 66.9 °F - 64.9 °F 93% 29.94 in 7.0 mi SSW 10.4 mph - N/A   Overcast
8:19 AM 68.0 °F - 66.0 °F 93% 29.94 in 7.0 mi SW 15.0 mph 24.2 mph N/A   Overcast
8:30 AM 68.0 °F - 66.0 °F 93% 29.94 in 7.0 mi SW 13.8 mph 20.7 mph N/A   Overcast
8:54 AM 69.1 °F - 66.9 °F 93% 29.94 in 9.0 mi SW 11.5 mph - N/A   Overcast
9:18 AM 70.0 °F - 66.9 °F 90% 29.95 in 10.0 mi SW 10.4 mph - N/A   Overcast
9:34 AM 70.0 °F - 66.9 °F 90% 29.95 in 10.0 mi SW 10.4 mph - N/A   Overcast
9:54 AM 71.1 °F - 66.0 °F 84% 29.94 in 10.0 mi SW 12.7 mph 20.7 mph N/A   Overcast
10:54 AM 71.1 °F - 66.0 °F 84% 29.94 in 10.0 mi WSW 11.5 mph - N/A   Overcast
12:54 PM 75.0 °F - 68.0 °F 79% 29.95 in 10.0 mi West 11.5 mph - N/A   Overcast
1:54 PM 78.1 °F - 69.1 °F 74% 29.95 in 10.0 mi West 10.4 mph - N/A   Mostly Cloudy
2:50 PM 78.8 °F - 69.8 °F 74% 29.97 in 10.0 mi West 9.2 mph - N/A   Scattered Clouds
2:54 PM 79.0 °F - 69.1 °F 72% 29.95 in 10.0 mi West 10.4 mph - N/A   Scattered Clouds
3:27 PM 78.1 °F - 69.1 °F 74% 29.97 in 10.0 mi West 10.4 mph - N/A   Mostly Cloudy
3:40 PM 79.0 °F - 69.1 °F 72% 29.97 in 10.0 mi West 11.5 mph - N/A   Mostly Cloudy
3:54 PM 80.1 °F 82.9 °F 69.1 °F 69% 29.96 in 10.0 mi West 10.4 mph - N/A   Scattered Clouds
4:54 PM 80.1 °F 82.7 °F 68.0 °F 67% 29.97 in 10.0 mi West 10.4 mph 21.9 mph N/A   Scattered Clouds
5:54 PM 78.1 °F - 66.9 °F 68% 29.98 in 10.0 mi West 8.1 mph - N/A   Clear
6:54 PM 75.0 °F - 68.0 °F 79% 30.00 in 10.0 mi WSW 5.8 mph - N/A   Clear
7:54 PM 72.0 °F - 68.0 °F 87% 30.01 in 10.0 mi Calm Calm - N/A   Clear
8:54 PM 68.0 °F - 66.9 °F 96% 30.03 in 9.0 mi West 3.5 mph - N/A   Scattered Clouds
9:49 PM 64.4 °F - 64.4 °F 100% 30.05 in 2.0 mi Calm Calm - N/A   Clear
9:54 PM 66.9 °F - 64.9 °F 93% 30.04 in 3.0 mi Calm Calm - N/A   Clear
10:45 PM 64.9 °F - 64.0 °F 97% 30.05 in 1.8 mi Calm Calm - N/A   Clear
10:54 PM 64.0 °F - 63.0 °F 96% 30.05 in 1.2 mi NW 3.5 mph - N/A   Clear
11:00 PM 64.0 °F - 63.0 °F 96% 30.06 in 0.8 mi NW 3.5 mph - N/A   Clear
11:09 PM 66.0 °F - 64.9 °F 96% 30.06 in 1.5 mi Calm Calm - N/A   Clear
11:12 PM 66.9 °F - 64.9 °F 93% 30.06 in 3.0 mi Calm Calm - N/A   Clear
11:16 PM 64.9 °F - 64.0 °F 97% 30.06 in 1.0 mi Calm Calm - N/A   Partly Cloudy
11:22 PM 63.0 °F - 62.1 °F 97% 30.06 in 0.5 mi South 3.5 mph - N/A Fog Fog
11:29 PM 63.0 °F - 62.1 °F 97% 30.07 in 1.2 mi Calm Calm - N/A   Mostly Cloudy
11:32 PM 63.0 °F - 62.1 °F 97% 30.07 in 3.0 mi Calm Calm - N/A   Mostly Cloudy
11:36 PM 63.0 °F - 62.1 °F 97% 30.07 in 1.0 mi WSW 3.5 mph - N/A   Mostly Cloudy
11:45 PM 63.0 °F - 61.0 °F 93% 30.08 in 2.5 mi Calm Calm - N/A   Mostly Cloudy
11:52 PM 64.4 °F - 62.6 °F 94% 30.08 in 6.0 mi Calm Calm - N/A   Mostly Cloudy
11:54 PM 64.0 °F - 63.0 °F 96% 30.07 in 6.0 mi Calm Calm - N/A   Mostly Cloudy